Location: Hormuz
(27.0871°N, 56.4580°E)
Time: 05:15:52
(UTC+04:30)

X-37B - Pass Details

Date: 23 June 2021
Orbit: 383 x 392 km, 45.0° (Epoch: 01 July)

Event Time Altitude Azimuth Distance (km) Brightness Sun altitude
Rises 20:16:11 0° 226° (SW) 2,244 4.7 -7.5°
Reaches altitude 10° 20:18:14 10° 224° (SW) 1,393 3.6 -7.9°
Maximum altitude 20:21:21 73° 140° (SE) 400 0.5 -8.5°
Drops below altitude 10° 20:24:29 10° 55° (NE) 1,396 3.2 -9.1°
Sets 20:26:33 0° 53° (NE) 2,250 4.2 -9.5°
